Location: ?????
(31.8092°N, 35.2590°E)
Time: 03:50:53
(UTC+00:00)

Cosmos 2360 Rocket - Pass Details

Date: 19 October 2021
Orbit: 832 x 846 km, 71.0° (Epoch: 07 December)

Event Time Altitude Azimuth Distance (km) Brightness Sun altitude
Rises 03:01:35 0° 346° (NNW) 3,408 5.2 -10.0°
Reaches altitude 10° 03:04:08 10° 353° (N) 2,471 4.5 -9.4°
Maximum altitude 03:09:35 47° 66° (ENE) 1,110 3.3 -8.3°
Drops below altitude 10° 03:15:00 10° 140° (SE) 2,458 5.4 -7.2°
Sets 03:17:32 0° 146° (SE) 3,388 6.0 -6.6°
